{"data":{"norad_id":57666,"epoch":"2026-09-20T05:11:29.835456Z","epoch_age_seconds":156111,"freshness":"FRESH","line1":"1 57666U 23124D   26263.21631754  .00032800  00000+0  97724-3 0  9994","line2":"2 57666  53.1605  81.6642 0000417 179.3942 180.7062 15.34413415172506","mean_motion":15.34413415,"eccentricity":4.17e-5,"inclination_deg":53.1605,"raan_deg":81.6642,"arg_perigee_deg":179.3942,"mean_anomaly_deg":180.7062,"bstar":0.00097724,"rev_number":17250,"period_min":93.846937593413,"perigee_km":462.37810691516,"apogee_km":462.94862966587,"semimajor_km":6840.8003682905,"source":"CELESTRAK","updated_at":"2026-09-21T09:00:33.670218Z"}}